FLOCK 4A-14 (44101 NORAD) Tracking and Keplerian Element Data

This shows tracking and keplerian element data for the satellite.

Feedback or suggestion? Click here.




ElementValue
Catalog44101
NameFLOCK 4A-14
Epoch Orbit310
Epoch Day111.71710294
Epoch Year2019
RAAN172.1184
Inclination97.462
Eccentricity0.0011299
Argument of Perigee219.6811
Mean Anonmoly140.36
Mean Motion15.22170475
Decay Rate5.65E-06
L11 44101U 19018Z 19111.71710294 .00000565 00000-0 27681-4 0 9997
L22 44101 97.4620 172.1184 0011299 219.6811 140.3600 15.22170475 3106

Live tracking and technical data element details for FLOCK 4A-14 (NORAD 44101). FLOCK 4A-14 can be tracked NOW for your location showing map with azimuth and elevation plus other details from your city location.

Track the satellite on the map from your city or location and see movement details for azimuth, elevation, latitude, longitude, range, height, and movement on the map or in text.







IsCatalogInMostPopularTable: catalog: 44101, numindb: 5
Update: records affected: 1



GetName: 44101 FLOCK 4A-14

Hit Count: updated at: Tue, 23 Apr 2019 01:56:51 GMT